SCP
0 0 -0 0 0 0 0 -0 0 0 0 -0 0 -0 0 0 -0 -0 -0 0 0 -0 -1 -1 -0 -0 -0 -0 -0 -0 -0 -0
0 0 0 0 0 0 0 -0 -0 0 -0 0 -0 0 0 -0 -0 -0 0 0 -0 -0 -1 -1 -0 -0 -0 -0 -0 -0 -0 -0
0 0 0 0 0 0 0 -0 -0 -0 -0 0 -0 -0 -0 -0 -0 -0 -0 0 -0 -1 -1 -0 -0 -0 -0 -0 -0 -0 -0 -0
0 0 0 0 0 0 0 0 0 -0 -0 0 -0 -0 -0 -0 -0 -0 -0 0 -0 -0 -0 -0 -0 -0 -0 -0 -0 -0 -0 -0
0 0 0 0 0 0 0 0 -0 -0 0 0 -0 -0 -0 0 0 -0 -0 0 0 0 -0 -0 -0 -0 -0 -0 -0 -0 -0 -0
0 0 0 0 0 0 0 -0 0 0 -0 0 -0 -0 0 0 -0 -0 -0 -0 -0 -0 -0 -0 -0 -0 -0 -0 -0 -0 -0 -0
0 0 0 0 0 0 0 0 0 0 0 0 -0 -0 -0 -0 -0 -0 -0 -0 -0 -0 -0 -0 0 -0 -0 -0 -0 -0 -0 -0
0 0 0 0 0 0 0 0 0 0 -0 -0 -0 -0 -0 -0 -0 -0 -0 -0 -0 -0 -0 -0 -0 -0 -0 -0 0 0 0 -0
0 0 0 0 0 0 0 0 0 0 -0 -0 -0 -0 -0 -0 -0 -0 -0 -0 -0 -0 -0 -0 0 0 0 0 0 0 0 0
0 0 0 0 0 0 0 0 0 0 -0 -0 -0 -0 0 0 -0 -0 -0 -0 -0 0 -0 0 0 0 0 0 0 0 0 0
0 0 0 0 0 0 0 -0 0 0 0 -0 -0 -0 -0 -0 0 -0 0 0 -0 0 0 0 0 0 0 0 0 0 0 0
0 0 0 0 0 0 0 0 0 0 0 0 0 -0 0 0 0 0 0 0 0 0 0 0 0 0 0 0 0 0 0 0
0 0 0 0 0 0 0 0 0 0 0 0 0 0 -0 0 0 0 0 0 0 0 0 0 0 0 0 0 0 0 0 0
0 0 0 0 0 0 0 1 1 1 1 0 0 0 0 0 0 0 0 0 0 0 0 0 0 0 0 0 0 -0 -0 -0
0 0 0 0 0 0 1 1 1 1 1 0 1 0 0 0 0 0 0 0 0 0 0 0 0 0 0 0 -0 -0 -0 -0
0 0 0 0 0 1 1 1 1 0 0 1 0 0 0 0 0 0 0 0 0 0 0 0 0 0 0 0 0 0 -0 -0
0 0 0 0 0 1 0 0 0 0 0 0 0 0 0 0 0 0 0 0 0 0 0 0 0 0 0 0 0 -0 0 0
0 0 0 0 0 0 0 0 0 0 0 0 0 0 0 0 0 0 0 0 0 0 0 0 0 0 0 0 0 0 0 0
0 0 0 0 0 0 0 0 0 0 0 0 0 0 0 0 0 0 0 0 0 0 0 0 0 0 0 0 0 0 0 0
-0 0 0 0 0 0 0 0 0 0 0 0 0 0 0 0 0 0 0 0 0 0 0 0 0 0 0 0 0 0 0 0
Wind_Speed_500mb
8 7 10 9 8 13 4 3 11 6 7 6 4 7 39 35 45 54 62 63 60 57 53 47 42 36 31 30 35 37 37 35
8 13 13 10 6 5 5 13 13 10 7 6 6 17 20 47 42 51 58 58 58 56 54 49 42 35 30 32 36 37 37 38
3 11 11 11 21 7 4 4 10 4 5 6 12 6 22 43 44 55 57 55 54 54 55 50 42 34 29 33 35 36 38 38
11 7 9 13 37 21 12 17 21 10 11 7 16 12 26 41 50 56 53 53 51 53 55 51 44 36 29 34 35 39 38 38
5 7 9 12 20 12 17 29 27 13 14 7 22 25 38 46 53 52 50 50 50 53 54 49 44 38 32 34 36 38 36 36
9 9 10 4 6 10 30 41 24 40 16 12 40 43 48 52 51 49 48 48 49 53 56 53 47 39 33 33 36 35 34 34
12 13 9 2 10 22 24 29 42 41 7 21 54 56 53 56 54 49 49 49 49 53 55 53 48 42 36 34 36 35 34 32
14 9 6 6 4 29 2 29 19 27 19 44 60 60 57 59 56 54 54 53 52 53 55 55 51 46 41 37 41 39 36 33
11 24 17 11 31 19 22 8 30 57 44 67 67 62 57 51 49 47 46 52 51 52 56 57 55 51 45 40 43 41 38 35
19 43 17 5 24 35 23 12 47 57 48 73 70 63 57 52 53 55 48 45 48 51 54 57 55 52 48 44 44 45 41 38
53 49 35 25 26 17 18 15 38 48 68 72 66 59 56 52 50 53 50 45 43 48 50 52 52 53 50 47 45 47 44 41
23 39 24 13 6 3 6 35 48 60 68 65 63 60 57 56 52 51 50 44 40 44 43 46 47 48 51 47 44 45 45 41
20 16 13 19 7 8 31 49 57 57 56 49 52 58 58 55 55 51 48 46 42 44 41 40 43 42 42 43 42 43 45 43
6 16 10 22 10 3 37 59 57 51 47 50 49 50 53 54 56 53 52 49 47 45 38 32 33 37 38 40 40 40 42 45
13 14 9 6 7 7 29 50 49 52 51 48 42 41 47 52 54 54 53 54 50 46 41 21 27 30 28 35 42 42 44 45
7 3 11 8 3 9 19 39 47 52 50 45 39 34 36 42 47 48 39 42 50 46 40 34 23 33 39 37 28 28 38 41
11 10 8 15 11 8 13 28 33 47 52 45 39 34 30 31 34 34 30 32 45 50 47 47 36 35 43 43 33 40 36 36
8 7 11 15 13 11 13 11 14 26 40 33 39 34 29 27 28 29 29 33 40 49 53 54 51 43 37 42 47 42 46 46
6 12 16 22 9 8 7 13 20 24 35 35 36 37 30 27 26 25 23 24 37 45 50 53 52 47 46 45 45 49 52 50
11 12 9 3 7 5 2 5 9 22 38 38 34 32 30 29 28 26 26 27 26 34 39 41 44 42 40 42 41 40 40 42
Wind_Direction_500mb
104 130 194 232 226 240 220 233 357 30 59 37 354 167 152 160 160 173 174 173 173 175 175 173 170 168 170 171 167 169 171 170
110 212 258 229 338 249 180 243 271 15 52 50 330 158 163 162 164 173 175 174 174 177 176 175 173 170 169 167 162 163 164 164
258 242 261 257 266 301 239 187 211 152 61 50 123 184 172 169 170 171 173 174 174 177 177 176 174 172 169 167 164 163 161 161
230 233 242 262 258 242 238 264 271 173 108 150 215 199 173 168 166 172 172 173 175 177 178 177 175 174 173 170 165 162 162 160
226 253 259 230 254 213 238 230 225 217 129 217 196 181 164 165 167 174 174 172 174 175 178 178 178 177 176 174 170 169 167 165
223 191 263 225 291 270 254 247 232 195 181 194 183 167 164 171 173 176 175 175 176 177 179 180 180 180 179 178 176 176 174 172
204 171 230 198 9 324 310 185 178 176 152 195 165 163 166 175 178 179 178 180 180 182 183 184 185 184 184 183 181 180 179 179
205 205 225 293 256 313 186 143 126 151 172 169 169 169 171 179 179 182 182 183 186 186 188 188 191 192 190 189 186 185 184 183
231 232 299 309 316 348 150 191 177 168 165 170 172 174 178 181 182 171 179 184 189 192 194 196 197 196 197 195 192 189 188 187
241 261 286 325 314 325 205 331 197 183 183 176 177 179 182 185 187 181 181 186 189 195 198 201 203 204 204 201 198 196 194 193
244 257 271 275 271 274 279 280 178 171 174 178 179 183 187 192 192 189 189 187 192 195 201 205 207 210 211 209 205 201 200 199
246 248 254 208 258 276 54 162 158 167 172 180 184 190 193 199 201 199 198 196 199 200 204 209 209 214 215 214 210 207 207 207
229 232 215 174 312 221 142 154 150 168 174 183 194 201 204 209 211 210 208 207 206 210 206 214 215 216 217 217 215 213 213 214
272 154 190 149 242 235 150 153 144 153 173 192 201 211 218 219 226 223 223 218 215 216 207 217 224 222 222 221 219 219 219 221
312 187 117 106 195 186 166 151 137 156 170 179 186 202 216 225 229 234 227 225 222 220 208 198 222 213 225 228 226 225 224 224
258 102 72 82 115 85 145 152 142 149 159 160 165 173 198 213 222 230 231 224 224 225 211 205 213 212 210 219 219 230 228 233
242 230 131 178 130 82 94 116 130 148 154 148 149 150 163 180 199 212 221 213 214 219 218 213 217 221 220 231 228 226 235 239
293 7 102 124 63 65 66 85 114 144 149 146 152 155 160 175 184 203 212 206 213 218 217 222 225 234 234 237 251 256 252 251
179 88 62 102 43 358 18 87 129 153 169 163 165 169 174 173 180 183 194 198 205 215 219 224 231 232 239 242 249 253 249 249
181 97 152 59 189 257 221 111 156 167 178 177 176 177 181 177 176 181 177 177 187 204 214 221 222 220 223 235 243 242 239 250
Wind_Speed_850mb
8 7 10 9 8 13 4 3 11 6 7 6 4 7 39 35 45 54 62 63 60 57 53 47 42 36 31 30 35 37 37 35
8 13 13 10 6 5 5 13 13 10 7 6 6 17 20 47 42 51 58 58 58 56 54 49 42 35 30 32 36 37 37 38
3 11 11 11 21 7 4 4 10 4 5 6 12 6 22 43 44 55 57 55 54 54 55 50 42 34 29 33 35 36 38 38
11 7 9 13 37 21 12 17 21 10 11 7 16 12 26 41 50 56 53 53 51 53 55 51 44 36 29 34 35 39 38 38
5 7 9 12 20 12 17 29 27 13 14 7 22 25 38 46 53 52 50 50 50 53 54 49 44 38 32 34 36 38 36 36
9 9 10 4 6 10 30 41 24 40 16 12 40 43 48 52 51 49 48 48 49 53 56 53 47 39 33 33 36 35 34 34
12 13 9 2 10 22 24 29 42 41 7 21 54 56 53 56 54 49 49 49 49 53 55 53 48 42 36 34 36 35 34 32
14 9 6 6 4 29 2 29 19 27 19 44 60 60 57 59 56 54 54 53 52 53 55 55 51 46 41 37 41 39 36 33
11 24 17 11 31 19 22 8 30 57 44 67 67 62 57 51 49 47 46 52 51 52 56 57 55 51 45 40 43 41 38 35
19 43 17 5 24 35 23 12 47 57 48 73 70 63 57 52 53 55 48 45 48 51 54 57 55 52 48 44 44 45 41 38
53 49 35 25 26 17 18 15 38 48 68 72 66 59 56 52 50 53 50 45 43 48 50 52 52 53 50 47 45 47 44 41
23 39 24 13 6 3 6 35 48 60 68 65 63 60 57 56 52 51 50 44 40 44 43 46 47 48 51 47 44 45 45 41
20 16 13 19 7 8 31 49 57 57 56 49 52 58 58 55 55 51 48 46 42 44 41 40 43 42 42 43 42 43 45 43
6 16 10 22 10 3 37 59 57 51 47 50 49 50 53 54 56 53 52 49 47 45 38 32 33 37 38 40 40 40 42 45
13 14 9 6 7 7 29 50 49 52 51 48 42 41 47 52 54 54 53 54 50 46 41 21 27 30 28 35 42 42 44 45
7 3 11 8 3 9 19 39 47 52 50 45 39 34 36 42 47 48 39 42 50 46 40 34 23 33 39 37 28 28 38 41
11 10 8 15 11 8 13 28 33 47 52 45 39 34 30 31 34 34 30 32 45 50 47 47 36 35 43 43 33 40 36 36
8 7 11 15 13 11 13 11 14 26 40 33 39 34 29 27 28 29 29 33 40 49 53 54 51 43 37 42 47 42 46 46
6 12 16 22 9 8 7 13 20 24 35 35 36 37 30 27 26 25 23 24 37 45 50 53 52 47 46 45 45 49 52 50
11 12 9 3 7 5 2 5 9 22 38 38 34 32 30 29 28 26 26 27 26 34 39 41 44 42 40 42 41 40 40 42
Wind_Direction_850mb
104 130 194 232 226 240 220 233 357 30 59 37 354 167 152 160 160 173 174 173 173 175 175 173 170 168 170 171 167 169 171 170
110 212 258 229 338 249 180 243 271 15 52 50 330 158 163 162 164 173 175 174 174 177 176 175 173 170 169 167 162 163 164 164
258 242 261 257 266 301 239 187 211 152 61 50 123 184 172 169 170 171 173 174 174 177 177 176 174 172 169 167 164 163 161 161
230 233 242 262 258 242 238 264 271 173 108 150 215 199 173 168 166 172 172 173 175 177 178 177 175 174 173 170 165 162 162 160
226 253 259 230 254 213 238 230 225 217 129 217 196 181 164 165 167 174 174 172 174 175 178 178 178 177 176 174 170 169 167 165
223 191 263 225 291 270 254 247 232 195 181 194 183 167 164 171 173 176 175 175 176 177 179 180 180 180 179 178 176 176 174 172
204 171 230 198 9 324 310 185 178 176 152 195 165 163 166 175 178 179 178 180 180 182 183 184 185 184 184 183 181 180 179 179
205 205 225 293 256 313 186 143 126 151 172 169 169 169 171 179 179 182 182 183 186 186 188 188 191 192 190 189 186 185 184 183
231 232 299 309 316 348 150 191 177 168 165 170 172 174 178 181 182 171 179 184 189 192 194 196 197 196 197 195 192 189 188 187
241 261 286 325 314 325 205 331 197 183 183 176 177 179 182 185 187 181 181 186 189 195 198 201 203 204 204 201 198 196 194 193
244 257 271 275 271 274 279 280 178 171 174 178 179 183 187 192 192 189 189 187 192 195 201 205 207 210 211 209 205 201 200 199
246 248 254 208 258 276 54 162 158 167 172 180 184 190 193 199 201 199 198 196 199 200 204 209 209 214 215 214 210 207 207 207
229 232 215 174 312 221 142 154 150 168 174 183 194 201 204 209 211 210 208 207 206 210 206 214 215 216 217 217 215 213 213 214
272 154 190 149 242 235 150 153 144 153 173 192 201 211 218 219 226 223 223 218 215 216 207 217 224 222 222 221 219 219 219 221
312 187 117 106 195 186 166 151 137 156 170 179 186 202 216 225 229 234 227 225 222 220 208 198 222 213 225 228 226 225 224 224
258 102 72 82 115 85 145 152 142 149 159 160 165 173 198 213 222 230 231 224 224 225 211 205 213 212 210 219 219 230 228 233
242 230 131 178 130 82 94 116 130 148 154 148 149 150 163 180 199 212 221 213 214 219 218 213 217 221 220 231 228 226 235 239
293 7 102 124 63 65 66 85 114 144 149 146 152 155 160 175 184 203 212 206 213 218 217 222 225 234 234 237 251 256 252 251
179 88 62 102 43 358 18 87 129 153 169 163 165 169 174 173 180 183 194 198 205 215 219 224 231 232 239 242 249 253 249 249
181 97 152 59 189 257 221 111 156 167 178 177 176 177 181 177 176 181 177 177 187 204 214 221 222 220 223 235 243 242 239 250